MGY47 SBRF-SBJP

Flight info

Callsign MGY47
Flight time N/A
Altitude 5500
Route DCT
Aircraft C172/L-SDE3/STD

Departure

Time 2026-05-06 18:04
Airport Recife/Guararapes - Gilberto Freyre International Airport (SBRF)

Arrival

Time N/A
Airport Presidente Castro Pinto International Airport (SBJP)
Time Latitude Longitude Altitude Speed Heading
2026-05-06 15:25 -7.61715 -35.53603 5500 ft 114 kts 30°
2026-05-06 15:25 -7.61059 -35.53132 5500 ft 114 kts 30°
2026-05-06 15:25 -7.60411 -35.52666 5500 ft 114 kts 30°
2026-05-06 15:26 -7.59761 -35.52199 5500 ft 114 kts 30°
2026-05-06 15:26 -7.59115 -35.51734 5500 ft 114 kts 30°
2026-05-06 15:26 -7.58459 -35.51262 5500 ft 114 kts 30°
2026-05-06 15:26 -7.57801 -35.50789 5500 ft 114 kts 30°
2026-05-06 15:27 -7.57155 -35.50325 5500 ft 114 kts 30°
2026-05-06 15:27 -7.56799 -35.50069 5500 ft 114 kts 30°
2026-05-06 15:27 -7.56345 -35.49743 5500 ft 114 kts 30°
2026-05-06 15:27 -7.55689 -35.49271 5500 ft 114 kts 30°
2026-05-06 15:28 -7.55050 -35.48811 5500 ft 114 kts 30°
2026-05-06 15:28 -7.54399 -35.48343 5500 ft 114 kts 30°
2026-05-06 15:28 -7.53753 -35.47879 5500 ft 114 kts 30°
2026-05-06 15:28 -7.53099 -35.47409 5500 ft 114 kts 30°
2026-05-06 15:29 -7.52453 -35.46945 5500 ft 114 kts 30°
2026-05-06 15:29 -7.51808 -35.46481 5500 ft 114 kts 30°
2026-05-06 15:29 -7.51161 -35.46016 5500 ft 114 kts 30°
2026-05-06 15:29 -7.50515 -35.45552 5500 ft 114 kts 30°
2026-05-06 15:30 -7.49868 -35.45087 5500 ft 114 kts 30°
2026-05-06 15:30 -7.49223 -35.44623 5500 ft 114 kts 30°
2026-05-06 15:30 -7.48576 -35.44159 5500 ft 114 kts 30°
2026-05-06 15:30 -7.47930 -35.43694 5500 ft 114 kts 30°
2026-05-06 15:31 -7.47285 -35.43230 5500 ft 114 kts 30°
2026-05-06 15:31 -7.46630 -35.42760 5500 ft 114 kts 30°
2026-05-06 15:31 -7.45984 -35.42296 5500 ft 114 kts 30°
2026-05-06 15:32 -7.44692 -35.41367 5500 ft 114 kts 30°
2026-05-06 15:32 -7.44035 -35.40895 5500 ft 114 kts 30°
2026-05-06 15:32 -7.43386 -35.40428 5500 ft 114 kts 30°
2026-05-06 15:32 -7.42743 -35.39965 5500 ft 114 kts 30°
2026-05-06 15:33 -7.42094 -35.39481 5499 ft 116 kts 36°
2026-05-06 15:33 -7.41833 -35.38703 5492 ft 125 kts 98°
2026-05-06 15:33 -7.42369 -35.38057 5499 ft 123 kts 162°
2026-05-06 15:33 -7.43141 -35.38174 5501 ft 111 kts 226°
2026-05-06 15:34 -7.43339 -35.38843 5501 ft 102 kts 290°
2026-05-06 15:34 -7.42849 -35.39332 5532 ft 100 kts 324°
2026-05-06 15:34 -7.42261 -35.39735 5514 ft 104 kts 324°
2026-05-06 15:34 -7.41562 -35.39870 5493 ft 111 kts 14°
2026-05-06 15:35 -7.41088 -35.39241 5498 ft 122 kts 78°
2026-05-06 15:35 -7.41408 -35.38471 5500 ft 125 kts 143°
2026-05-06 15:35 -7.41943 -35.38291 5501 ft 119 kts 186°
2026-05-06 15:35 -7.42572 -35.38693 5501 ft 106 kts 250°
2026-05-06 15:36 -7.42502 -35.39383 5526 ft 100 kts 296°
2026-05-06 15:36 -7.42122 -35.39970 5510 ft 103 kts 321°
2026-05-06 15:36 -7.41682 -35.40080 5500 ft 108 kts
2026-05-06 15:36 -7.41104 -35.39579 5501 ft 120 kts 66°
2026-05-06 15:37 -7.41269 -35.38770 5500 ft 125 kts 130°
2026-05-06 15:37 -7.42035 -35.38484 5502 ft 118 kts 195°
2026-05-06 15:37 -7.42589 -35.38977 5501 ft 105 kts 259°
2026-05-06 15:37 -7.42379 -35.39624 5524 ft 100 kts 310°
2026-05-06 15:38 -7.41944 -35.40177 5523 ft 102 kts 307°
2026-05-06 15:38 -7.41511 -35.40759 5507 ft 104 kts 307°
2026-05-06 15:38 -7.41091 -35.41358 5501 ft 105 kts 302°
2026-05-06 15:38 -7.40757 -35.42015 5500 ft 105 kts 295°
2026-05-06 15:39 -7.40490 -35.42703 5500 ft 105 kts 291°
2026-05-06 15:39 -7.40256 -35.43403 5500 ft 106 kts 290°
2026-05-06 15:39 -7.40037 -35.44112 5500 ft 106 kts 289°
2026-05-06 15:39 -7.39826 -35.44821 5500 ft 106 kts 289°
2026-05-06 15:40 -7.39618 -35.45533 5500 ft 106 kts 288°
2026-05-06 15:40 -7.39411 -35.46244 5500 ft 106 kts 288°
2026-05-06 15:40 -7.39205 -35.46956 5500 ft 106 kts 288°
2026-05-06 15:40 -7.38994 -35.47677 5500 ft 106 kts 289°
2026-05-06 15:41 -7.38775 -35.48413 5500 ft 106 kts 289°
2026-05-06 15:41 -7.38562 -35.49125 5500 ft 106 kts 289°
2026-05-06 15:41 -7.38339 -35.49874 5500 ft 106 kts 289°
2026-05-06 15:41 -7.38127 -35.50584 5499 ft 106 kts 289°
2026-05-06 15:42 -7.37912 -35.51305 5501 ft 106 kts 289°
2026-05-06 15:42 -7.37696 -35.52027 5500 ft 106 kts 289°
2026-05-06 15:42 -7.37483 -35.52740 5500 ft 106 kts 289°
2026-05-06 15:42 -7.37267 -35.53465 5500 ft 106 kts 289°
2026-05-06 15:43 -7.37054 -35.54178 5500 ft 106 kts 289°
2026-05-06 15:43 -7.36841 -35.54892 5500 ft 106 kts 289°
2026-05-06 15:43 -7.36627 -35.55606 5500 ft 106 kts 289°
2026-05-06 15:43 -7.36411 -35.56332 5500 ft 106 kts 289°
2026-05-06 15:44 -7.36197 -35.57047 5500 ft 106 kts 289°
2026-05-06 15:44 -7.35984 -35.57760 5500 ft 107 kts 289°
2026-05-06 15:44 -7.35770 -35.58478 5500 ft 107 kts 289°
2026-05-06 15:44 -7.35556 -35.59193 5500 ft 107 kts 289°
2026-05-06 15:45 -7.35342 -35.59910 5500 ft 107 kts 289°
2026-05-06 15:45 -7.35128 -35.60626 5500 ft 107 kts 289°
2026-05-06 15:45 -7.34983 -35.61110 5500 ft 107 kts 289°
2026-05-06 15:45 -7.34696 -35.62071 5500 ft 107 kts 289°
2026-05-06 15:46 -7.34480 -35.62793 5497 ft 108 kts 289°
2026-05-06 15:46 -7.34334 -35.63283 5499 ft 108 kts 289°
2026-05-06 15:46 -7.34114 -35.64020 5501 ft 109 kts 289°
2026-05-06 15:46 -7.33889 -35.64771 5501 ft 109 kts 289°
2026-05-06 15:47 -7.33668 -35.65513 5501 ft 109 kts 289°
2026-05-06 15:47 -7.33446 -35.66255 5500 ft 109 kts 289°
2026-05-06 15:47 -7.33220 -35.67009 5500 ft 109 kts 289°
2026-05-06 15:47 -7.33000 -35.67746 5500 ft 109 kts 289°
2026-05-06 15:48 -7.32772 -35.68509 5500 ft 109 kts 289°
2026-05-06 15:48 -7.32547 -35.69260 5500 ft 109 kts 289°
2026-05-06 15:48 -7.32321 -35.70018 5500 ft 109 kts 289°
2026-05-06 15:48 -7.32095 -35.70771 5500 ft 109 kts 289°
2026-05-06 15:49 -7.31874 -35.71513 5500 ft 109 kts 289°
2026-05-06 15:49 -7.31652 -35.72255 5500 ft 109 kts 289°
2026-05-06 15:49 -7.31502 -35.72754 5500 ft 109 kts 289°
2026-05-06 15:49 -7.31274 -35.73518 5500 ft 109 kts 289°
2026-05-06 15:50 -7.31051 -35.74263 5500 ft 109 kts 289°
2026-05-06 15:50 -7.30828 -35.75007 5500 ft 109 kts 289°
2026-05-06 15:50 -7.30604 -35.75758 5500 ft 109 kts 289°
2026-05-06 15:50 -7.30381 -35.76503 5500 ft 109 kts 289°
2026-05-06 15:51 -7.30147 -35.77286 5500 ft 109 kts 289°
2026-05-06 15:51 -7.29924 -35.78029 5500 ft 109 kts 289°
2026-05-06 15:51 -7.29705 -35.78761 5500 ft 109 kts 289°
2026-05-06 15:51 -7.29485 -35.79497 5500 ft 109 kts 289°
2026-05-06 15:52 -7.29263 -35.80237 5500 ft 109 kts 289°
2026-05-06 15:52 -7.29044 -35.80970 5500 ft 109 kts 289°
2026-05-06 15:52 -7.28821 -35.81714 5500 ft 109 kts 289°
2026-05-06 15:52 -7.28602 -35.82445 5500 ft 109 kts 289°
2026-05-06 15:53 -7.28383 -35.83177 5500 ft 109 kts 289°
2026-05-06 15:53 -7.28161 -35.83918 5500 ft 109 kts 289°
2026-05-06 15:53 -7.27939 -35.84659 5500 ft 109 kts 289°
2026-05-06 15:53 -7.27720 -35.85390 5500 ft 109 kts 289°
2026-05-06 15:54 -7.27497 -35.86134 5499 ft 109 kts 289°
2026-05-06 15:54 -7.27275 -35.86876 5500 ft 109 kts 289°
2026-05-06 15:54 -7.27085 -35.87510 5500 ft 109 kts 289°
2026-05-06 15:55 -7.27031 -35.87691 5500 ft 109 kts 289°
2026-05-06 15:55 -7.26811 -35.88425 5500 ft 110 kts 289°
2026-05-06 15:55 -7.26588 -35.89162 5500 ft 110 kts 289°
2026-05-06 15:55 -7.26205 -35.89808 5490 ft 108 kts 328°
2026-05-06 15:56 -7.25489 -35.89772 5497 ft 111 kts 31°
2026-05-06 15:56 -7.25204 -35.89045 5500 ft 119 kts 96°
2026-05-06 15:56 -7.25708 -35.88429 5501 ft 121 kts 159°
2026-05-06 15:56 -7.26501 -35.88555 5508 ft 115 kts 219°
2026-05-06 15:57 -7.27159 -35.89001 5519 ft 119 kts 199°
2026-05-06 15:57 -7.27938 -35.88784 5505 ft 122 kts 135°
2026-05-06 15:57 -7.28147 -35.88006 5501 ft 117 kts 71°
2026-05-06 15:57 -7.27638 -35.87427 5531 ft 109 kts 31°
2026-05-06 15:58 -7.27010 -35.86972 5514 ft 113 kts 32°
2026-05-06 15:58 -7.26357 -35.86494 5504 ft 113 kts 32°
2026-05-06 15:58 -7.25720 -35.86022 5501 ft 113 kts 33°
2026-05-06 15:58 -7.25087 -35.85549 5499 ft 113 kts 33°
2026-05-06 15:59 -7.24471 -35.85048 5499 ft 114 kts 39°
2026-05-06 15:59 -7.23919 -35.84455 5500 ft 115 kts 46°
2026-05-06 15:59 -7.23423 -35.83807 5500 ft 116 kts 50°
2026-05-06 15:59 -7.22959 -35.83137 5500 ft 116 kts 52°
2026-05-06 16:00 -7.22521 -35.82473 5500 ft 116 kts 52°
2026-05-06 16:00 -7.22069 -35.81771 5500 ft 116 kts 53°
2026-05-06 16:00 -7.21632 -35.81085 5500 ft 116 kts 53°
2026-05-06 16:00 -7.21197 -35.80398 5500 ft 116 kts 53°
2026-05-06 16:01 -7.20765 -35.79713 5492 ft 116 kts 53°
2026-05-06 16:01 -7.20306 -35.78990 5569 ft 130 kts 53°
2026-05-06 16:01 -7.19791 -35.78176 5527 ft 140 kts 54°
2026-05-06 16:01 -7.19270 -35.77348 5406 ft 134 kts 54°
2026-05-06 16:02 -7.18795 -35.76588 5467 ft 122 kts 54°
2026-05-06 16:02 -7.18344 -35.75868 5484 ft 118 kts 54°
2026-05-06 16:02 -7.17903 -35.75166 5494 ft 116 kts 53°
2026-05-06 16:02 -7.17470 -35.74478 5498 ft 116 kts 53°
2026-05-06 16:03 -7.17180 -35.74018 5499 ft 116 kts 53°
2026-05-06 16:03 -7.16735 -35.73311 5500 ft 116 kts 53°
2026-05-06 16:03 -7.16300 -35.72621 5500 ft 116 kts 53°
2026-05-06 16:03 -7.15867 -35.71933 5500 ft 116 kts 53°
2026-05-06 16:04 -7.15434 -35.71245 5500 ft 116 kts 53°
2026-05-06 16:04 -7.14996 -35.70549 5500 ft 116 kts 53°
2026-05-06 16:04 -7.14561 -35.69859 5500 ft 116 kts 53°
2026-05-06 16:04 -7.14128 -35.69171 5500 ft 116 kts 53°
2026-05-06 16:05 -7.13689 -35.68474 5500 ft 116 kts 53°
2026-05-06 16:05 -7.13256 -35.67786 5500 ft 116 kts 53°
2026-05-06 16:05 -7.12862 -35.67160 5500 ft 116 kts 53°
2026-05-06 16:05 -7.12425 -35.66467 5500 ft 116 kts 53°
2026-05-06 16:06 -7.11987 -35.65770 5500 ft 116 kts 53°
2026-05-06 16:06 -7.11552 -35.65080 5499 ft 116 kts 53°
2026-05-06 16:06 -7.11118 -35.64390 5500 ft 117 kts 53°
2026-05-06 16:06 -7.10675 -35.63688 5500 ft 117 kts 53°
2026-05-06 16:07 -7.10240 -35.62997 5500 ft 117 kts 53°
2026-05-06 16:07 -7.09793 -35.62287 5498 ft 117 kts 52°
2026-05-06 16:07 -7.09347 -35.61580 5500 ft 118 kts 52°
2026-05-06 16:07 -7.08909 -35.60884 5501 ft 118 kts 52°
2026-05-06 16:08 -7.08459 -35.60170 5501 ft 118 kts 52°
2026-05-06 16:08 -7.08015 -35.59466 5500 ft 118 kts 52°
2026-05-06 16:08 -7.07569 -35.58758 5500 ft 118 kts 52°
2026-05-06 16:08 -7.07126 -35.58055 5500 ft 118 kts 52°
2026-05-06 16:09 -7.06683 -35.57351 5500 ft 118 kts 52°
2026-05-06 16:09 -7.06236 -35.56643 5500 ft 118 kts 52°
2026-05-06 16:09 -7.05796 -35.55944 5500 ft 118 kts 52°
2026-05-06 16:09 -7.05354 -35.55242 5500 ft 118 kts 52°
2026-05-06 16:10 -7.04907 -35.54533 5500 ft 118 kts 52°
2026-05-06 16:10 -7.04466 -35.53833 5500 ft 118 kts 52°
2026-05-06 16:10 -7.04025 -35.53134 5500 ft 118 kts 52°
2026-05-06 16:10 -7.03583 -35.52432 5500 ft 118 kts 52°
2026-05-06 16:11 -7.03291 -35.51968 5500 ft 118 kts 52°
2026-05-06 16:11 -7.02841 -35.51255 5500 ft 118 kts 52°
2026-05-06 16:11 -7.02398 -35.50553 5500 ft 118 kts 52°
2026-05-06 16:11 -7.01957 -35.49853 5500 ft 118 kts 52°
2026-05-06 16:12 -7.01515 -35.49151 5500 ft 118 kts 52°
2026-05-06 16:12 -7.01074 -35.48451 5500 ft 119 kts 52°
2026-05-06 16:12 -7.00625 -35.47739 5500 ft 119 kts 52°
2026-05-06 16:12 -7.00184 -35.47040 5500 ft 119 kts 52°
2026-05-06 16:13 -6.99741 -35.46337 5500 ft 119 kts 52°
2026-05-06 16:13 -6.99298 -35.45634 5500 ft 119 kts 52°
2026-05-06 16:13 -6.98850 -35.44923 5500 ft 119 kts 52°
2026-05-06 16:13 -6.98407 -35.44222 5500 ft 119 kts 52°
2026-05-06 16:14 -6.97964 -35.43519 5500 ft 119 kts 52°
2026-05-06 16:14 -6.97824 -35.43295 5500 ft 119 kts 52°
2026-05-06 16:15 -6.97402 -35.42626 5500 ft 119 kts 52°
2026-05-06 16:15 -6.96953 -35.41914 5500 ft 119 kts 52°
2026-05-06 16:15 -6.96505 -35.41203 5500 ft 119 kts 52°
2026-05-06 16:15 -6.96065 -35.40503 5500 ft 119 kts 52°
2026-05-06 16:16 -6.95623 -35.39800 5500 ft 119 kts 52°
2026-05-06 16:16 -6.95077 -35.39201 5490 ft 112 kts 18°
2026-05-06 16:16 -6.94349 -35.39234 5530 ft 104 kts 344°
2026-05-06 16:16 -6.93622 -35.39317 5515 ft 108 kts 353°
2026-05-06 16:17 -6.92852 -35.39297 5505 ft 109 kts 359°
2026-05-06 16:17 -6.92093 -35.39230 5501 ft 110 kts
2026-05-06 16:17 -6.91333 -35.39141 5500 ft 110 kts
2026-05-06 16:17 -6.90574 -35.39042 5499 ft 110 kts
2026-05-06 16:18 -6.89806 -35.38937 5500 ft 110 kts
2026-05-06 16:18 -6.89046 -35.38831 5500 ft 110 kts
2026-05-06 16:18 -6.88289 -35.38725 5500 ft 110 kts
2026-05-06 16:18 -6.87531 -35.38617 5500 ft 110 kts
2026-05-06 16:19 -6.86762 -35.38508 5500 ft 110 kts
2026-05-06 16:19 -6.86005 -35.38401 5500 ft 110 kts
2026-05-06 16:19 -6.85257 -35.38294 5500 ft 110 kts
2026-05-06 16:19 -6.84491 -35.38185 5500 ft 110 kts
2026-05-06 16:20 -6.83733 -35.38078 5500 ft 110 kts
2026-05-06 16:20 -6.83230 -35.38006 5500 ft 110 kts
2026-05-06 16:20 -6.82454 -35.37896 5500 ft 110 kts
2026-05-06 16:20 -6.81697 -35.37788 5500 ft 110 kts
2026-05-06 16:21 -6.80941 -35.37680 5500 ft 110 kts
2026-05-06 16:21 -6.80186 -35.37573 5500 ft 110 kts
2026-05-06 16:21 -6.79429 -35.37465 5500 ft 110 kts
2026-05-06 16:21 -6.78672 -35.37358 5500 ft 110 kts
2026-05-06 16:22 -6.77906 -35.37248 5486 ft 109 kts
2026-05-06 16:22 -6.77160 -35.37143 5480 ft 107 kts
2026-05-06 16:22 -6.76426 -35.37039 5495 ft 106 kts
2026-05-06 16:22 -6.75688 -35.36934 5504 ft 108 kts
2026-05-06 16:23 -6.74943 -35.36828 5504 ft 109 kts
2026-05-06 16:23 -6.74190 -35.36721 5502 ft 109 kts
2026-05-06 16:23 -6.73433 -35.36613 5501 ft 110 kts
2026-05-06 16:23 -6.72676 -35.36505 5501 ft 110 kts
2026-05-06 16:24 -6.71908 -35.36396 5500 ft 110 kts
2026-05-06 16:24 -6.71152 -35.36288 5500 ft 110 kts
2026-05-06 16:24 -6.70395 -35.36181 5500 ft 110 kts
2026-05-06 16:24 -6.69638 -35.36073 5500 ft 110 kts
2026-05-06 16:25 -6.68870 -35.35964 5500 ft 110 kts
2026-05-06 16:25 -6.68103 -35.35855 5500 ft 110 kts
2026-05-06 16:25 -6.67345 -35.35747 5500 ft 110 kts
2026-05-06 16:25 -6.66587 -35.35639 5500 ft 110 kts
2026-05-06 16:26 -6.65819 -35.35530 5500 ft 110 kts
2026-05-06 16:26 -6.65070 -35.35423 5500 ft 110 kts
2026-05-06 16:26 -6.64302 -35.35314 5500 ft 110 kts
2026-05-06 16:26 -6.63546 -35.35207 5500 ft 110 kts
2026-05-06 16:27 -6.62777 -35.35098 5500 ft 110 kts
2026-05-06 16:27 -6.62020 -35.34990 5500 ft 110 kts
2026-05-06 16:27 -6.61262 -35.34882 5500 ft 110 kts
2026-05-06 16:27 -6.60503 -35.34774 5500 ft 110 kts
2026-05-06 16:28 -6.59736 -35.34665 5500 ft 110 kts
2026-05-06 16:28 -6.58979 -35.34558 5500 ft 110 kts
2026-05-06 16:28 -6.58222 -35.34450 5500 ft 110 kts
2026-05-06 16:28 -6.57461 -35.34342 5500 ft 110 kts
2026-05-06 16:29 -6.56695 -35.34233 5500 ft 110 kts
2026-05-06 16:29 -6.55937 -35.34125 5500 ft 110 kts
2026-05-06 16:29 -6.55178 -35.34018 5500 ft 110 kts
2026-05-06 16:29 -6.54421 -35.33910 5500 ft 110 kts
2026-05-06 16:30 -6.53663 -35.33802 5500 ft 110 kts
2026-05-06 16:30 -6.53161 -35.33731 5500 ft 110 kts
2026-05-06 16:30 -6.52148 -35.33587 5500 ft 110 kts
2026-05-06 16:30 -6.51390 -35.33479 5500 ft 110 kts
2026-05-06 16:31 -6.50622 -35.33370 5500 ft 110 kts
2026-05-06 16:31 -6.49862 -35.33262 5500 ft 110 kts
2026-05-06 16:31 -6.49105 -35.33155 5500 ft 110 kts
2026-05-06 16:31 -6.48346 -35.33047 5500 ft 110 kts
2026-05-06 16:32 -6.47588 -35.32939 5500 ft 110 kts
2026-05-06 16:32 -6.46830 -35.32831 5500 ft 110 kts
2026-05-06 16:32 -6.46072 -35.32724 5500 ft 110 kts
2026-05-06 16:32 -6.45315 -35.32616 5500 ft 110 kts
2026-05-06 16:33 -6.44557 -35.32509 5500 ft 110 kts
2026-05-06 16:33 -6.43799 -35.32401 5500 ft 110 kts
2026-05-06 16:33 -6.43030 -35.32292 5500 ft 110 kts
2026-05-06 16:34 -6.41513 -35.32076 5500 ft 110 kts
2026-05-06 16:34 -6.40755 -35.31969 5500 ft 110 kts
2026-05-06 16:34 -6.40244 -35.31896 5500 ft 110 kts
2026-05-06 16:34 -6.39485 -35.31788 5500 ft 110 kts
2026-05-06 16:35 -6.38726 -35.31680 5500 ft 110 kts
2026-05-06 16:35 -6.37968 -35.31573 5500 ft 110 kts
2026-05-06 16:35 -6.36953 -35.31429 5500 ft 110 kts
2026-05-06 16:35 -6.36451 -35.31357 5500 ft 110 kts
2026-05-06 16:36 -6.35692 -35.31250 5500 ft 110 kts
2026-05-06 16:36 -6.34933 -35.31142 5500 ft 110 kts
2026-05-06 16:36 -6.34166 -35.31033 5500 ft 110 kts
2026-05-06 16:36 -6.33408 -35.30925 5500 ft 110 kts
2026-05-06 16:37 -6.32656 -35.30819 5500 ft 110 kts
2026-05-06 16:37 -6.31889 -35.30709 5500 ft 110 kts
2026-05-06 16:37 -6.31131 -35.30602 5500 ft 110 kts
2026-05-06 16:37 -6.30372 -35.30494 5500 ft 110 kts
2026-05-06 16:38 -6.29614 -35.30387 5500 ft 110 kts
2026-05-06 16:38 -6.28842 -35.30277 5500 ft 110 kts
2026-05-06 16:38 -6.28084 -35.30169 5500 ft 110 kts
2026-05-06 16:38 -6.27325 -35.30062 5500 ft 110 kts
2026-05-06 16:39 -6.26565 -35.29954 5500 ft 110 kts
2026-05-06 16:39 -6.25797 -35.29845 5500 ft 110 kts
2026-05-06 16:39 -6.25039 -35.29737 5500 ft 110 kts
2026-05-06 16:39 -6.24280 -35.29629 5500 ft 110 kts
2026-05-06 16:40 -6.23518 -35.29521 5500 ft 110 kts
2026-05-06 16:40 -6.22759 -35.29414 5500 ft 110 kts
2026-05-06 16:40 -6.22000 -35.29306 5500 ft 110 kts
2026-05-06 16:40 -6.21233 -35.29197 5500 ft 110 kts
2026-05-06 16:41 -6.21072 -35.29174 5500 ft 110 kts
2026-05-06 16:41 -6.20401 -35.29079 5500 ft 110 kts
2026-05-06 16:41 -6.19645 -35.28972 5500 ft 110 kts
2026-05-06 16:41 -6.18876 -35.28863 5500 ft 110 kts
2026-05-06 16:42 -6.18116 -35.28755 5500 ft 110 kts
2026-05-06 16:42 -6.17347 -35.28645 5500 ft 110 kts
2026-05-06 16:42 -6.16587 -35.28538 5500 ft 110 kts
2026-05-06 16:42 -6.15830 -35.28430 5500 ft 110 kts
2026-05-06 16:43 -6.15070 -35.28322 5500 ft 110 kts
2026-05-06 16:43 -6.14310 -35.28213 5500 ft 110 kts
2026-05-06 16:43 -6.13593 -35.27872 5514 ft 114 kts 27°
2026-05-06 16:43 -6.12936 -35.27411 5506 ft 116 kts 29°
2026-05-06 16:44 -6.12274 -35.26934 5501 ft 116 kts 26°
2026-05-06 16:44 -6.11582 -35.26528 5502 ft 115 kts 23°
2026-05-06 16:44 -6.10883 -35.26135 5500 ft 115 kts 22°
2026-05-06 16:44 -6.10287 -35.25800 5500 ft 115 kts 22°
2026-05-06 16:45 -6.10133 -35.25713 5500 ft 115 kts 22°
2026-05-06 16:45 -6.09426 -35.25316 5500 ft 115 kts 22°
2026-05-06 16:45 -6.08727 -35.24924 5500 ft 115 kts 22°
2026-05-06 16:45 -6.08027 -35.24531 5500 ft 115 kts 22°
2026-05-06 16:46 -6.07320 -35.24133 5500 ft 115 kts 22°
2026-05-06 16:46 -6.06614 -35.23736 5500 ft 115 kts 22°
2026-05-06 16:46 -6.06152 -35.23477 5500 ft 115 kts 22°
2026-05-06 16:46 -6.05456 -35.23086 5500 ft 115 kts 22°
2026-05-06 16:47 -6.04756 -35.22693 5500 ft 115 kts 22°
2026-05-06 16:47 -6.04059 -35.22301 5500 ft 115 kts 22°
2026-05-06 16:47 -6.03361 -35.21909 5500 ft 115 kts 22°
2026-05-06 16:47 -6.02658 -35.21529 5498 ft 113 kts 16°
2026-05-06 16:48 -6.01931 -35.21570 5525 ft 103 kts 338°
2026-05-06 16:48 -6.01207 -35.21673 5521 ft 107 kts 351°
2026-05-06 16:48 -6.00457 -35.21707 5506 ft 109 kts 352°
2026-05-06 16:48 -5.99701 -35.21737 5501 ft 109 kts 352°
2026-05-06 16:49 -5.98942 -35.21767 5500 ft 109 kts 352°
2026-05-06 16:49 -5.98201 -35.21861 5502 ft 106 kts 342°
2026-05-06 16:49 -5.97486 -35.22050 5502 ft 106 kts 340°
2026-05-06 16:49 -5.96779 -35.22265 5500 ft 106 kts 338°
2026-05-06 16:50 -5.96216 -35.22441 5500 ft 106 kts 338°
2026-05-06 16:50 -5.95512 -35.22662 5500 ft 106 kts 338°
2026-05-06 16:50 -5.94826 -35.22899 5500 ft 105 kts 335°
2026-05-06 16:50 -5.94142 -35.23180 5500 ft 105 kts 333°
2026-05-06 16:51 -5.93474 -35.23461 5500 ft 105 kts 333°
2026-05-06 16:51 -5.92798 -35.23746 5500 ft 105 kts 333°
2026-05-06 16:51 -5.92125 -35.24030 5500 ft 105 kts 333°
2026-05-06 16:51 -5.91449 -35.24315 5500 ft 105 kts 333°
2026-05-06 16:52 -5.90768 -35.24602 5500 ft 105 kts 333°
2026-05-06 16:52 -5.90094 -35.24887 5500 ft 105 kts 333°
2026-05-06 16:52 -5.89420 -35.25171 5500 ft 105 kts 333°
2026-05-06 16:52 -5.88744 -35.25456 5500 ft 105 kts 333°
2026-05-06 16:53 -5.88070 -35.25741 5500 ft 105 kts 333°
2026-05-06 16:53 -5.87602 -35.26237 5491 ft 103 kts 283°
2026-05-06 16:53 -5.87836 -35.26917 5527 ft 106 kts 242°
2026-05-06 16:53 -5.88259 -35.27536 5514 ft 109 kts 241°
2026-05-06 16:54 -5.88702 -35.28161 5503 ft 111 kts 236°
2026-05-06 16:54 -5.89443 -35.28462 5517 ft 119 kts 190°
2026-05-06 16:54 -5.90274 -35.28503 5507 ft 122 kts 188°
2026-05-06 16:54 -5.91161 -35.28546 5570 ft 135 kts 188°
2026-05-06 16:55 -5.92154 -35.28601 5482 ft 144 kts 188°
2026-05-06 16:55 -5.93117 -35.28658 5464 ft 132 kts 188°
2026-05-06 16:55 -5.94012 -35.28705 5479 ft 126 kts 188°
2026-05-06 16:55 -5.94877 -35.28746 5490 ft 123 kts 188°
2026-05-06 16:56 -5.95730 -35.28784 5496 ft 122 kts 187°
2026-05-06 16:56 -5.96546 -35.28523 5507 ft 126 kts 145°
2026-05-06 16:56 -5.97230 -35.27971 5517 ft 127 kts 143°
2026-05-06 16:56 -5.97923 -35.27407 5505 ft 128 kts 143°
2026-05-06 16:57 -5.98621 -35.26840 5501 ft 129 kts 143°
2026-05-06 16:57 -5.99344 -35.26313 5495 ft 127 kts 159°
2026-05-06 16:57 -6.00180 -35.26114 5511 ft 121 kts 184°
2026-05-06 16:57 -6.01019 -35.26153 5512 ft 121 kts 190°
2026-05-06 16:58 -6.01861 -35.26217 5503 ft 121 kts 190°
2026-05-06 16:58 -6.02098 -35.26235 5502 ft 121 kts 190°
2026-05-06 16:58 -6.02175 -35.26241 5502 ft 121 kts 190°
2026-05-06 16:58 -6.03017 -35.26307 5500 ft 121 kts 190°
2026-05-06 16:59 -6.03860 -35.26373 5500 ft 121 kts 190°
2026-05-06 16:59 -6.04700 -35.26439 5500 ft 121 kts 190°
2026-05-06 16:59 -6.05553 -35.26506 5500 ft 121 kts 190°
2026-05-06 16:59 -6.06383 -35.26571 5500 ft 121 kts 190°
2026-05-06 17:00 -6.07225 -35.26636 5500 ft 121 kts 190°
2026-05-06 17:00 -6.08066 -35.26702 5500 ft 121 kts 190°
2026-05-06 17:00 -6.08905 -35.26767 5500 ft 121 kts 190°
2026-05-06 17:00 -6.09747 -35.26833 5500 ft 121 kts 190°
2026-05-06 17:01 -6.10587 -35.26899 5500 ft 121 kts 190°
2026-05-06 17:01 -6.11425 -35.26964 5500 ft 121 kts 190°
2026-05-06 17:01 -6.12267 -35.27030 5500 ft 121 kts 190°
2026-05-06 17:01 -6.13113 -35.27096 5500 ft 121 kts 190°
2026-05-06 17:02 -6.13954 -35.27162 5500 ft 121 kts 190°
2026-05-06 17:02 -6.14796 -35.27228 5500 ft 121 kts 190°
2026-05-06 17:02 -6.15628 -35.27293 5500 ft 121 kts 190°
2026-05-06 17:02 -6.16467 -35.27360 5500 ft 121 kts 190°
2026-05-06 17:03 -6.17309 -35.27427 5500 ft 121 kts 190°
2026-05-06 17:03 -6.18149 -35.27494 5500 ft 121 kts 190°
2026-05-06 17:03 -6.18990 -35.27562 5500 ft 121 kts 190°
2026-05-06 17:03 -6.19844 -35.27630 5500 ft 121 kts 190°
2026-05-06 17:04 -6.20359 -35.27672 5500 ft 121 kts 190°
2026-05-06 17:04 -6.20994 -35.27723 5500 ft 121 kts 190°
2026-05-06 17:04 -6.21834 -35.27790 5500 ft 121 kts 190°
2026-05-06 17:05 -6.22677 -35.27857 5500 ft 121 kts 190°
2026-05-06 17:05 -6.23519 -35.27925 5500 ft 121 kts 190°
2026-05-06 17:05 -6.24350 -35.27855 5495 ft 126 kts 160°
2026-05-06 17:05 -6.25142 -35.27437 5523 ft 125 kts 158°
2026-05-06 17:06 -6.25947 -35.27095 5507 ft 126 kts 163°
2026-05-06 17:06 -6.26778 -35.26809 5502 ft 126 kts 166°
2026-05-06 17:06 -6.27615 -35.26557 5500 ft 125 kts 168°
2026-05-06 17:06 -6.28456 -35.26323 5500 ft 125 kts 169°
2026-05-06 17:07 -6.29300 -35.26098 5500 ft 125 kts 169°
2026-05-06 17:07 -6.30142 -35.25879 5500 ft 125 kts 170°
2026-05-06 17:07 -6.30986 -35.25661 5500 ft 125 kts 170°
2026-05-06 17:07 -6.31827 -35.25446 5500 ft 125 kts 170°
2026-05-06 17:08 -6.32670 -35.25231 5500 ft 125 kts 170°
2026-05-06 17:08 -6.33511 -35.25017 5500 ft 125 kts 170°
2026-05-06 17:08 -6.34346 -35.24804 5500 ft 125 kts 170°
2026-05-06 17:08 -6.35187 -35.24590 5500 ft 125 kts 170°
2026-05-06 17:09 -6.36030 -35.24376 5500 ft 125 kts 170°
2026-05-06 17:09 -6.36874 -35.24161 5500 ft 125 kts 170°
2026-05-06 17:09 -6.37717 -35.23947 5500 ft 125 kts 170°
2026-05-06 17:09 -6.38561 -35.23732 5500 ft 125 kts 170°
2026-05-06 17:10 -6.39131 -35.23587 5500 ft 125 kts 170°
2026-05-06 17:10 -6.39974 -35.23373 5500 ft 125 kts 170°
2026-05-06 17:10 -6.40817 -35.23159 5500 ft 125 kts 170°
2026-05-06 17:10 -6.41661 -35.22944 5500 ft 125 kts 170°
2026-05-06 17:11 -6.42507 -35.22729 5500 ft 125 kts 170°
2026-05-06 17:11 -6.43366 -35.22510 5500 ft 125 kts 170°
2026-05-06 17:11 -6.44210 -35.22295 5500 ft 125 kts 170°
2026-05-06 17:11 -6.45051 -35.22081 5500 ft 125 kts 170°
2026-05-06 17:12 -6.45894 -35.21867 5500 ft 125 kts 170°
2026-05-06 17:12 -6.46740 -35.21652 5500 ft 125 kts 170°
2026-05-06 17:12 -6.47583 -35.21437 5500 ft 125 kts 170°
2026-05-06 17:12 -6.48426 -35.21223 5500 ft 125 kts 170°
2026-05-06 17:13 -6.49269 -35.21008 5500 ft 125 kts 170°
2026-05-06 17:13 -6.50102 -35.20796 5500 ft 125 kts 170°
2026-05-06 17:13 -6.50957 -35.20579 5500 ft 125 kts 170°
2026-05-06 17:13 -6.51789 -35.20367 5500 ft 125 kts 170°
2026-05-06 17:14 -6.52632 -35.20153 5500 ft 125 kts 170°
2026-05-06 17:14 -6.53476 -35.19938 5500 ft 125 kts 170°
2026-05-06 17:14 -6.54329 -35.19721 5500 ft 125 kts 170°
2026-05-06 17:14 -6.55176 -35.19505 5500 ft 125 kts 170°
2026-05-06 17:15 -6.56021 -35.19290 5500 ft 125 kts 170°
2026-05-06 17:15 -6.56867 -35.19075 5500 ft 125 kts 170°
2026-05-06 17:15 -6.57703 -35.18862 5500 ft 125 kts 170°
2026-05-06 17:15 -6.58544 -35.18648 5500 ft 125 kts 170°
2026-05-06 17:16 -6.59389 -35.18433 5500 ft 125 kts 170°
2026-05-06 17:16 -6.60234 -35.18217 5500 ft 125 kts 170°
2026-05-06 17:16 -6.61078 -35.18003 5500 ft 125 kts 170°
2026-05-06 17:16 -6.61920 -35.17788 5500 ft 125 kts 170°
2026-05-06 17:17 -6.62762 -35.17574 5500 ft 125 kts 170°
2026-05-06 17:17 -6.63606 -35.17359 5500 ft 125 kts 170°
2026-05-06 17:17 -6.64451 -35.17144 5500 ft 125 kts 170°
2026-05-06 17:17 -6.65293 -35.16930 5500 ft 125 kts 170°
2026-05-06 17:18 -6.66148 -35.16712 5500 ft 125 kts 170°
2026-05-06 17:18 -6.66990 -35.16497 5500 ft 125 kts 170°
2026-05-06 17:18 -6.67835 -35.16282 5500 ft 125 kts 170°
2026-05-06 17:18 -6.68678 -35.16068 5500 ft 125 kts 170°
2026-05-06 17:19 -6.69533 -35.15850 5500 ft 125 kts 170°
2026-05-06 17:19 -6.70377 -35.15635 5500 ft 125 kts 170°
2026-05-06 17:19 -6.71221 -35.15420 5500 ft 125 kts 170°
2026-05-06 17:19 -6.72063 -35.15205 5500 ft 125 kts 170°
2026-05-06 17:20 -6.72904 -35.14991 5500 ft 125 kts 170°
2026-05-06 17:20 -6.73748 -35.14776 5500 ft 125 kts 170°
2026-05-06 17:20 -6.74591 -35.14561 5500 ft 125 kts 170°
2026-05-06 17:20 -6.75436 -35.14346 5500 ft 125 kts 170°
2026-05-06 17:21 -6.76279 -35.14131 5500 ft 125 kts 170°
2026-05-06 17:21 -6.77122 -35.13917 5500 ft 125 kts 170°
2026-05-06 17:21 -6.77965 -35.13702 5500 ft 125 kts 170°
2026-05-06 17:21 -6.78809 -35.13487 5500 ft 125 kts 170°
2026-05-06 17:22 -6.79651 -35.13272 5500 ft 125 kts 170°
2026-05-06 17:22 -6.80495 -35.13057 5500 ft 125 kts 170°
2026-05-06 17:22 -6.81338 -35.12842 5500 ft 125 kts 170°
2026-05-06 17:22 -6.82182 -35.12627 5500 ft 125 kts 170°
2026-05-06 17:23 -6.83016 -35.12414 5500 ft 125 kts 170°
2026-05-06 17:23 -6.83858 -35.12200 5500 ft 125 kts 170°
2026-05-06 17:23 -6.84702 -35.11984 5500 ft 125 kts 170°
2026-05-06 17:23 -6.85546 -35.11769 5500 ft 125 kts 170°
2026-05-06 17:24 -6.86388 -35.11554 5500 ft 125 kts 170°
2026-05-06 17:24 -6.87231 -35.11339 5500 ft 125 kts 170°
2026-05-06 17:24 -6.88075 -35.11123 5500 ft 125 kts 170°
2026-05-06 17:24 -6.88918 -35.10908 5500 ft 125 kts 170°
2026-05-06 17:25 -6.89760 -35.10691 5500 ft 125 kts 170°
2026-05-06 17:25 -6.90600 -35.10463 5499 ft 126 kts 165°
2026-05-06 17:25 -6.91204 -35.09850 5493 ft 128 kts 105°
2026-05-06 17:25 -6.91036 -35.09041 5499 ft 117 kts 43°
2026-05-06 17:26 -6.90338 -35.08828 5500 ft 104 kts 339°
2026-05-06 17:26 -6.89934 -35.09361 5500 ft 103 kts 276°
2026-05-06 17:26 -6.90122 -35.10059 5533 ft 104 kts 256°
2026-05-06 17:26 -6.90379 -35.10754 5509 ft 108 kts 251°
2026-05-06 17:27 -6.90989 -35.11207 5494 ft 121 kts 193°
2026-05-06 17:27 -6.91758 -35.10876 5499 ft 128 kts 130°
2026-05-06 17:27 -6.91904 -35.10043 5500 ft 122 kts 66°
2026-05-06 17:27 -6.91326 -35.09538 5500 ft 109 kts
2026-05-06 17:28 -6.90705 -35.09831 5509 ft 100 kts 304°
2026-05-06 17:28 -6.90362 -35.10430 5524 ft 101 kts 299°
2026-05-06 17:28 -6.90087 -35.11090 5508 ft 103 kts 290°
2026-05-06 17:28 -6.89599 -35.11575 5496 ft 107 kts 343°
2026-05-06 17:29 -6.88909 -35.11293 5499 ft 119 kts 46°
2026-05-06 17:29 -6.88807 -35.10466 5500 ft 127 kts 109°
2026-05-06 17:29 -6.89448 -35.09921 5500 ft 123 kts 173°
2026-05-06 17:29 -6.90181 -35.10169 5500 ft 109 kts 236°
2026-05-06 17:30 -6.90303 -35.10851 5510 ft 101 kts 293°
2026-05-06 17:30 -6.89721 -35.11199 5503 ft 108 kts 357°
2026-05-06 17:30 -6.89108 -35.10745 5501 ft 122 kts 60°
2026-05-06 17:30 -6.89194 -35.09905 5500 ft 127 kts 124°
2026-05-06 17:31 -6.89934 -35.09523 5500 ft 120 kts 187°
2026-05-06 17:31 -6.90562 -35.09931 5500 ft 106 kts 250°
2026-05-06 17:31 -6.90437 -35.10594 5500 ft 102 kts 314°
2026-05-06 17:31 -6.89750 -35.10692 5500 ft 112 kts 17°
2026-05-06 17:32 -6.89313 -35.10041 5501 ft 124 kts 80°
2026-05-06 17:32 -6.89652 -35.09263 5500 ft 126 kts 143°
2026-05-06 17:32 -6.90453 -35.09135 5500 ft 116 kts 207°
2026-05-06 17:32 -6.90883 -35.09715 5500 ft 103 kts 271°
2026-05-06 17:33 -6.90558 -35.10316 5529 ft 100 kts 314°
2026-05-06 17:33 -6.90009 -35.10760 5512 ft 105 kts 331°
2026-05-06 17:33 -6.89289 -35.10634 5498 ft 117 kts 34°
2026-05-06 17:33 -6.89033 -35.09852 5500 ft 127 kts 97°
2026-05-06 17:34 -6.89316 -35.09345 5500 ft 127 kts 139°
2026-05-06 17:34 -6.90113 -35.09158 5500 ft 117 kts 202°
2026-05-06 17:34 -6.90577 -35.09937 5502 ft 102 kts 285°
2026-05-06 17:34 -6.90290 -35.10576 5529 ft 101 kts 299°
2026-05-06 17:35 -6.89974 -35.10934 5503 ft 105 kts 328°
2026-05-06 17:35 -6.89255 -35.10855 5499 ft 116 kts 31°
2026-05-06 17:35 -6.88956 -35.10094 5500 ft 126 kts 94°
2026-05-06 17:36 -6.90239 -35.09446 5500 ft 113 kts 220°
2026-05-06 17:36 -6.90516 -35.10093 5501 ft 102 kts 283°
2026-05-06 17:36 -6.90189 -35.10715 5526 ft 101 kts 313°
2026-05-06 17:36 -6.89529 -35.10979 5537 ft 103 kts 338°
2026-05-06 17:37 -6.89081 -35.11487 5507 ft 104 kts 280°
2026-05-06 17:37 -6.89415 -35.12123 5501 ft 115 kts 217°
2026-05-06 17:37 -6.90225 -35.12120 5510 ft 124 kts 160°
2026-05-06 17:37 -6.90982 -35.11721 5523 ft 126 kts 155°
2026-05-06 17:38 -6.91758 -35.11295 5507 ft 127 kts 154°
2026-05-06 17:38 -6.92550 -35.10869 5501 ft 127 kts 157°
2026-05-06 17:38 -6.93356 -35.10530 5499 ft 126 kts 165°
2026-05-06 17:38 -6.94177 -35.10281 5500 ft 125 kts 170°
2026-05-06 17:39 -6.95050 -35.10079 5500 ft 125 kts 173°
2026-05-06 17:39 -6.95607 -35.09969 5500 ft 124 kts 174°
2026-05-06 17:39 -6.96451 -35.09818 5500 ft 124 kts 175°
2026-05-06 17:40 -6.97302 -35.09678 5500 ft 124 kts 175°
2026-05-06 17:40 -6.97923 -35.09579 5500 ft 124 kts 176°
2026-05-06 17:40 -6.98118 -35.09549 5500 ft 124 kts 176°
2026-05-06 17:40 -6.98971 -35.09417 5500 ft 124 kts 176°
2026-05-06 17:41 -6.99824 -35.09287 5500 ft 124 kts 176°
2026-05-06 17:41 -7.00682 -35.09157 5500 ft 124 kts 176°
2026-05-06 17:41 -7.01530 -35.08990 5501 ft 124 kts 172°
2026-05-06 17:41 -7.02383 -35.08853 5503 ft 124 kts 177°
2026-05-06 17:42 -7.03240 -35.08735 5501 ft 124 kts 177°
2026-05-06 17:42 -7.04094 -35.08619 5500 ft 124 kts 177°
2026-05-06 17:42 -7.04938 -35.08504 5500 ft 124 kts 177°
2026-05-06 17:42 -7.05796 -35.08386 5500 ft 124 kts 177°
2026-05-06 17:43 -7.06652 -35.08269 5500 ft 124 kts 177°
2026-05-06 17:43 -7.07503 -35.08153 5500 ft 124 kts 177°
2026-05-06 17:43 -7.08360 -35.08035 5500 ft 124 kts 177°
2026-05-06 17:43 -7.09216 -35.07918 5500 ft 124 kts 177°
2026-05-06 17:44 -7.10072 -35.07801 5500 ft 124 kts 177°
2026-05-06 17:44 -7.10927 -35.07684 5500 ft 124 kts 177°
2026-05-06 17:44 -7.11782 -35.07567 5500 ft 124 kts 177°
2026-05-06 17:44 -7.12635 -35.07451 5500 ft 124 kts 177°
2026-05-06 17:45 -7.13489 -35.07334 5500 ft 124 kts 177°
2026-05-06 17:45 -7.14354 -35.07216 5500 ft 124 kts 177°
2026-05-06 17:45 -7.15211 -35.07099 5500 ft 124 kts 177°
2026-05-06 17:45 -7.16065 -35.06982 5500 ft 124 kts 177°
2026-05-06 17:46 -7.16920 -35.06865 5500 ft 124 kts 177°
2026-05-06 17:46 -7.17778 -35.06749 5500 ft 124 kts 177°
2026-05-06 17:46 -7.18631 -35.06632 5500 ft 124 kts 177°
2026-05-06 17:46 -7.19486 -35.06516 5500 ft 124 kts 177°
2026-05-06 17:47 -7.20340 -35.06400 5500 ft 124 kts 177°
2026-05-06 17:47 -7.21195 -35.06284 5500 ft 124 kts 177°
2026-05-06 17:47 -7.22052 -35.06168 5500 ft 124 kts 177°
2026-05-06 17:47 -7.22907 -35.06052 5500 ft 124 kts 177°
2026-05-06 17:48 -7.23764 -35.05935 5500 ft 124 kts 177°
2026-05-06 17:48 -7.24618 -35.05820 5500 ft 124 kts 177°
2026-05-06 17:48 -7.25475 -35.05703 5500 ft 124 kts 177°
2026-05-06 17:48 -7.26327 -35.05588 5500 ft 124 kts 177°
2026-05-06 17:49 -7.27176 -35.05473 5500 ft 124 kts 177°
2026-05-06 17:49 -7.28040 -35.05355 5500 ft 124 kts 177°
2026-05-06 17:49 -7.28896 -35.05239 5500 ft 124 kts 177°
2026-05-06 17:49 -7.29750 -35.05123 5500 ft 124 kts 177°
2026-05-06 17:50 -7.30595 -35.05009 5500 ft 124 kts 177°
2026-05-06 17:50 -7.31451 -35.04893 5500 ft 124 kts 177°
2026-05-06 17:50 -7.32305 -35.04777 5500 ft 124 kts 177°
2026-05-06 17:50 -7.33160 -35.04661 5500 ft 124 kts 177°
2026-05-06 17:51 -7.34015 -35.04545 5500 ft 124 kts 177°
2026-05-06 17:51 -7.34871 -35.04429 5500 ft 124 kts 177°
2026-05-06 17:51 -7.35728 -35.04313 5500 ft 124 kts 177°
2026-05-06 17:51 -7.36584 -35.04198 5500 ft 124 kts 177°
2026-05-06 17:52 -7.37439 -35.04083 5500 ft 124 kts 177°
2026-05-06 17:52 -7.38294 -35.03968 5500 ft 124 kts 177°
2026-05-06 17:52 -7.39150 -35.03853 5500 ft 124 kts 177°
2026-05-06 17:52 -7.40004 -35.03738 5500 ft 124 kts 177°
2026-05-06 17:53 -7.40860 -35.03623 5500 ft 124 kts 177°
2026-05-06 17:53 -7.41703 -35.03510 5500 ft 124 kts 177°
2026-05-06 17:53 -7.42560 -35.03395 5500 ft 124 kts 177°
2026-05-06 17:53 -7.43414 -35.03280 5500 ft 124 kts 177°
2026-05-06 17:54 -7.44278 -35.03164 5500 ft 124 kts 177°
2026-05-06 17:54 -7.45146 -35.03048 5500 ft 124 kts 177°
2026-05-06 17:54 -7.45999 -35.02934 5500 ft 124 kts 177°
2026-05-06 17:54 -7.46857 -35.02819 5500 ft 124 kts 177°
2026-05-06 17:55 -7.47710 -35.02705 5499 ft 122 kts 177°
2026-05-06 17:55 -7.48556 -35.02590 5362 ft 123 kts 177°
2026-05-06 17:55 -7.49411 -35.02486 5178 ft 125 kts 177°
2026-05-06 17:55 -7.50248 -35.02393 5039 ft 119 kts 177°
2026-05-06 17:56 -7.50827 -35.02334 4827 ft 123 kts 176°
2026-05-06 17:56 -7.51671 -35.02261 4588 ft 121 kts 177°
2026-05-06 17:56 -7.52496 -35.02200 4376 ft 118 kts 177°
2026-05-06 17:56 -7.53320 -35.02147 4138 ft 118 kts 177°
2026-05-06 17:57 -7.54131 -35.02103 3930 ft 116 kts 177°
2026-05-06 17:57 -7.54967 -35.02060 3899 ft 118 kts 177°
2026-05-06 17:57 -7.55782 -35.02020 3975 ft 115 kts 177°
2026-05-06 17:57 -7.56593 -35.01978 4002 ft 117 kts 177°
2026-05-06 17:58 -7.57407 -35.01936 4006 ft 120 kts 177°
2026-05-06 17:58 -7.58270 -35.01891 4005 ft 121 kts 177°
2026-05-06 17:58 -7.59116 -35.01847 4002 ft 122 kts 177°
2026-05-06 17:58 -7.59963 -35.01803 4001 ft 122 kts 177°
2026-05-06 17:59 -7.60812 -35.01758 4000 ft 122 kts 177°
2026-05-06 17:59 -7.61413 -35.01727 4000 ft 122 kts 177°
2026-05-06 17:59 -7.61810 -35.01706 4000 ft 122 kts 177°
2026-05-06 17:59 -7.62659 -35.01662 4000 ft 122 kts 177°
2026-05-06 18:00 -7.63507 -35.01618 4000 ft 122 kts 177°
2026-05-06 18:00 -7.64354 -35.01574 4000 ft 122 kts 177°
2026-05-06 18:00 -7.65203 -35.01530 4000 ft 122 kts 177°
2026-05-06 18:00 -7.66047 -35.01486 4000 ft 122 kts 177°
2026-05-06 18:01 -7.66896 -35.01441 4000 ft 122 kts 177°
2026-05-06 18:01 -7.67745 -35.01397 4000 ft 122 kts 177°
2026-05-06 18:01 -7.68248 -35.01371 4000 ft 122 kts 177°
2026-05-06 18:01 -7.68720 -35.01346 4000 ft 122 kts 177°
2026-05-06 18:02 -7.69570 -35.01302 4000 ft 122 kts 177°
2026-05-06 18:02 -7.70416 -35.01258 4000 ft 122 kts 177°
2026-05-06 18:02 -7.71260 -35.01215 4000 ft 122 kts 177°
2026-05-06 18:02 -7.72109 -35.01171 4000 ft 122 kts 177°
2026-05-06 18:03 -7.72966 -35.01126 4000 ft 122 kts 177°
2026-05-06 18:03 -7.73814 -35.01082 3999 ft 122 kts 177°
2026-05-06 18:03 -7.74666 -35.01037 4000 ft 122 kts 177°
2026-05-06 18:03 -7.75516 -35.00991 4000 ft 122 kts 177°
2026-05-06 18:04 -7.76364 -35.00945 4000 ft 122 kts 177°
2026-05-06 18:04 -7.77219 -35.00899 4000 ft 122 kts 177°
2026-05-06 18:04 -7.78072 -35.00852 4000 ft 123 kts 177°
2026-05-06 18:04 -7.78923 -35.00806 4000 ft 123 kts 177°
2026-05-06 18:05 -7.79778 -35.00759 4000 ft 123 kts 177°
2026-05-06 18:05 -7.80640 -35.00712 4000 ft 123 kts 177°
2026-05-06 18:05 -7.81492 -35.00666 4000 ft 123 kts 177°
2026-05-06 18:05 -7.82344 -35.00619 4000 ft 123 kts 177°
2026-05-06 18:06 -7.83197 -35.00572 4000 ft 123 kts 177°
2026-05-06 18:06 -7.84045 -35.00466 4002 ft 123 kts 170°
2026-05-06 18:06 -7.84886 -35.00306 4001 ft 123 kts 169°
2026-05-06 18:06 -7.85729 -35.00144 4000 ft 123 kts 169°
2026-05-06 18:07 -7.86567 -34.99981 4000 ft 123 kts 169°
2026-05-06 18:07 -7.87407 -34.99819 4000 ft 123 kts 169°
2026-05-06 18:07 -7.88238 -34.99658 4000 ft 123 kts 169°
2026-05-06 18:07 -7.89094 -34.99493 3903 ft 129 kts 169°
2026-05-06 18:08 -7.89975 -34.99324 3732 ft 126 kts 169°
2026-05-06 18:08 -7.90823 -34.99163 3547 ft 122 kts 169°
2026-05-06 18:08 -7.91644 -34.99006 3367 ft 119 kts 169°
2026-05-06 18:08 -7.92453 -34.98851 3188 ft 118 kts 169°
2026-05-06 18:09 -7.93256 -34.98698 3011 ft 117 kts 169°
2026-05-06 18:09 -7.94055 -34.98546 2836 ft 117 kts 169°
2026-05-06 18:09 -7.94853 -34.98394 2661 ft 117 kts 169°
2026-05-06 18:09 -7.95653 -34.98241 2486 ft 116 kts 169°
2026-05-06 18:10 -7.96441 -34.98091 2314 ft 116 kts 169°
2026-05-06 18:10 -7.97239 -34.97939 2139 ft 116 kts 169°
2026-05-06 18:10 -7.98029 -34.97770 1966 ft 116 kts 167°
2026-05-06 18:10 -7.98822 -34.97590 1793 ft 116 kts 167°
2026-05-06 18:11 -7.99608 -34.97411 1652 ft 114 kts 167°
2026-05-06 18:11 -8.00365 -34.97240 1588 ft 108 kts 167°
2026-05-06 18:11 -8.01074 -34.97078 1579 ft 102 kts 167°
2026-05-06 18:11 -8.01715 -34.96827 1580 ft 99 kts 137°
2026-05-06 18:12 -8.02167 -34.96330 1614 ft 96 kts 137°
2026-05-06 18:12 -8.02680 -34.95896 1560 ft 101 kts 141°
2026-05-06 18:12 -8.03259 -34.95472 1451 ft 103 kts 147°
2026-05-06 18:12 -8.03868 -34.95122 1387 ft 96 kts 154°
2026-05-06 18:13 -8.04453 -34.94876 1357 ft 85 kts 160°
2026-05-06 18:13 -8.04958 -34.94715 1338 ft 71 kts 164°
2026-05-06 18:13 -8.05443 -34.94588 1249 ft 70 kts 166°
2026-05-06 18:13 -8.05919 -34.94474 1162 ft 70 kts 167°
2026-05-06 18:14 -8.06392 -34.94359 1076 ft 70 kts 166°
2026-05-06 18:14 -8.06863 -34.94235 990 ft 70 kts 165°
2026-05-06 18:14 -8.07330 -34.94099 902 ft 70 kts 163°
2026-05-06 18:14 -8.07796 -34.93951 811 ft 70 kts 162°
2026-05-06 18:15 -8.08263 -34.93796 719 ft 71 kts 161°
2026-05-06 18:15 -8.08731 -34.93637 625 ft 71 kts 161°
2026-05-06 18:15 -8.09197 -34.93478 530 ft 72 kts 161°
2026-05-06 18:15 -8.09671 -34.93318 434 ft 72 kts 161°
2026-05-06 18:16 -8.10147 -34.93160 337 ft 72 kts 162°
2026-05-06 18:16 -8.10623 -34.93003 240 ft 72 kts 162°
2026-05-06 18:16 -8.11102 -34.92846 144 ft 72 kts 162°
2026-05-06 18:16 -8.11579 -34.92690 50 ft 72 kts 162°
2026-05-06 18:17 -8.12011 -34.92550 37 ft 53 kts 162°
2026-05-06 18:17 -8.12232 -34.92477 37 ft 20 kts 162°
2026-05-06 18:17 -8.12305 -34.92454 37 ft 0 kts 162°